Carlsbad, NM

8:33 AM MDT on October 17, 2017 (GMT -0600)
Cavern City

Weather History for KCNM - September, 2013

Change the Weather History Date:

Thursday, September 19, 2013

  Actual Average Record
Temperature  
Mean Temperature 73 °F -  
Max Temperature 80 °F 85 °F 99 °F (1983)
Min Temperature 66 °F 59 °F 44 °F (1991)
Cooling Degree Days 8    
Growing Degree Days 23 (Base 50)    
Moisture  
Dew Point 65 °F    
Average Humidity 77    
Maximum Humidity 90    
Minimum Humidity 58    
Precipitation  
Precipitation 0.00 in - - ()
Sea Level Pressure  
Sea Level Pressure 29.85 in    
Wind  
Wind Speed 7 mph (SE)    
Max Wind Speed 14 mph    
Max Gust Speed -    
Visibility 10 miles    
Events      
Averages and records for this station are not official NWS values.
T = Trace of Precipitation, MM = Missing Value Source: NWS Daily Summary

Daily Weather History Graph

Daily Weather History Graph

Search for Another Location

Airport or City:

Trip Planner

Search our weather history database for the weather conditions in past years. The results will help you decide how hot, cold, wet, or windy it might be!

Date:

Astronomy

Sep. 19, 2013 Rise Set
Actual Time 6:43 AM MDT 6:57 PM MDT
Civil Twilight 6:19 AM MDT 7:21 PM MDT
Nautical Twilight 5:50 AM MDT 7:50 PM MDT
Astronomical Twilight 5:21 AM MDT 8:19 PM MDT
Moon 7:01 PM MDT (9/19) 6:52 AM MDT (9/19)
Length of Visible Light 13h 02m
Length of Day
12h 13m
Full, 100% of the Moon is Illuminated
Sep 19
Full
Sep 26
Last Quarter
Oct 4
New
Oct 11
First Quarter
Oct 18
Full

Hourly Weather History & Observations

Time (MDT) Temp. Heat Index Dew Point Humidity Pressure Visibility Wind Dir Wind Speed Gust Speed Precip Events Conditions
12:53 AM 72.0 °F - 64.0 °F 76% 29.79 in 10.0 mi SSE 6.9 mph - N/A   Clear
1:53 AM 70.0 °F - 64.0 °F 81% 29.79 in 10.0 mi SE 6.9 mph - N/A   Clear
2:53 AM 69.1 °F - 64.0 °F 84% 29.78 in 10.0 mi SE 6.9 mph - N/A   Mostly Cloudy
3:53 AM 68.0 °F - 64.0 °F 87% 29.78 in 10.0 mi SSE 5.8 mph - N/A   Mostly Cloudy
4:53 AM 69.1 °F - 64.0 °F 84% 29.78 in 10.0 mi SSE 5.8 mph - N/A   Overcast
5:53 AM 68.0 °F - 64.0 °F 87% 29.78 in 10.0 mi SSE 6.9 mph - N/A   Mostly Cloudy
6:53 AM 66.9 °F - 64.0 °F 90% 29.80 in 10.0 mi South 3.5 mph - N/A   Clear
7:53 AM 69.1 °F - 64.9 °F 87% 29.82 in 10.0 mi South 3.5 mph - N/A   Clear
8:38 AM 69.8 °F - 64.4 °F 83% 29.98 in 10.0 mi South 8.1 mph - N/A   Mostly Cloudy
8:53 AM 72.0 °F - 66.0 °F 81% 29.83 in 10.0 mi SSE 8.1 mph - N/A   Mostly Cloudy
9:39 AM 73.4 °F - 66.2 °F 78% 30.00 in 10.0 mi SSE 10.4 mph - N/A   Overcast
9:53 AM 73.9 °F - 66.0 °F 76% 29.84 in 10.0 mi SE 10.4 mph - N/A   Overcast
10:53 AM 75.0 °F - 66.0 °F 73% 29.84 in 10.0 mi SSE 5.8 mph - N/A   Mostly Cloudy
11:02 AM 75.2 °F - 66.2 °F 73% 29.99 in 10.0 mi SE 5.8 mph - N/A   Scattered Clouds
11:11 AM 75.2 °F - 66.2 °F 73% 29.99 in 10.0 mi SSE 5.8 mph - N/A   Mostly Cloudy
11:45 AM 75.2 °F - 66.2 °F 73% 29.99 in 10.0 mi SSE 6.9 mph - N/A   Overcast
11:53 AM 77.0 °F - 66.0 °F 69% 29.83 in 10.0 mi SE 4.6 mph - N/A   Mostly Cloudy
12:53 PM 80.1 °F 81.9 °F 64.9 °F 60% 29.80 in 10.0 mi ESE 5.8 mph - N/A   Mostly Cloudy
1:53 PM 79.0 °F - 64.0 °F 60% 29.78 in 10.0 mi SE 9.2 mph - N/A   Mostly Cloudy
2:53 PM 79.0 °F - 64.9 °F 62% 29.78 in 10.0 mi SSE 9.2 mph - N/A   Partly Cloudy
3:53 PM 80.1 °F 81.7 °F 64.0 °F 58% 29.76 in 10.0 mi SSE 6.9 mph - N/A   Scattered Clouds
4:53 PM 79.0 °F - 64.0 °F 60% 29.77 in 10.0 mi SE 9.2 mph - N/A   Scattered Clouds
5:53 PM 77.0 °F - 64.9 °F 66% 29.78 in 10.0 mi ESE 9.2 mph - N/A   Scattered Clouds
6:53 PM 73.0 °F - 66.0 °F 79% 29.79 in 10.0 mi SE 13.8 mph - 0.00 in   Partly Cloudy
7:32 PM 73.4 °F - 66.2 °F 78% 29.95 in 10.0 mi SE 8.1 mph - N/A   Mostly Cloudy
7:53 PM 72.0 °F - 66.0 °F 81% 29.81 in 10.0 mi SE 10.4 mph - N/A   Overcast
8:53 PM 72.0 °F - 66.0 °F 81% 29.84 in 10.0 mi SE 4.6 mph - N/A   Overcast
9:13 PM 71.6 °F - 64.4 °F 78% 29.98 in 10.0 mi SE 5.8 mph - N/A   Overcast
9:53 PM 70.0 °F - 64.9 °F 84% 29.83 in 10.0 mi SE 6.9 mph - N/A   Clear
10:53 PM 69.1 °F - 64.9 °F 87% 29.82 in 10.0 mi SSE 6.9 mph - N/A   Clear
11:33 PM 69.8 °F - 66.2 °F 88% 29.97 in 10.0 mi ESE 3.5 mph - N/A   Mostly Cloudy
11:53 PM 69.1 °F - 66.0 °F 90% 29.82 in 10.0 mi ESE 4.6 mph - N/A   Overcast